EDT,Max TemperatureF,Mean TemperatureF,Min TemperatureF,Max Dew PointF,MeanDew PointF,Min DewpointF,Max Humidity, Mean Humidity, Min Humidity, Max Sea Level PressureIn, Mean Sea Level PressureIn, Min Sea Level PressureIn, Max VisibilityMiles, Mean VisibilityMiles, Min VisibilityMiles, Max Wind SpeedMPH, Mean Wind SpeedMPH, Max Gust SpeedMPH,PrecipitationIn, CloudCover, Events, WindDirDegrees
2013-6-1,84,78,75,74,72,70,94,83,69,30.12,30.08,30.05,10,10,5,17,12,,0.09,4,Rain,125
2013-6-2,84,80,75,76,75,73,94,86,74,30.07,30.00,29.92,10,10,8,17,9,23,0.01,4,Rain,133
2013-6-3,89,80,71,76,73,68,96,85,58,29.98,29.94,29.89,10,9,3,20,6,23,1.41,4,Rain-Thunderstorm,199
2013-6-4,84,78,71,75,73,71,100,89,69,30.05,30.01,29.96,10,8,2,17,5,20,1.14,5,Rain-Thunderstorm,221
2013-6-5,82,78,73,73,71,70,100,88,67,30.04,29.99,29.95,10,9,1,12,4,,0.10,5,Rain,185
2013-6-6,79,76,73,75,73,70,94,90,78,29.96,29.80,29.62,10,7,2,26,12,40,1.42,8,Rain,141
2013-6-7,91,81,71,74,70,69,94,73,52,29.95,29.84,29.66,10,9,1,17,12,26,0.20,5,Rain,242
2013-6-8,89,80,73,76,72,70,96,81,61,30.10,30.03,29.95,10,10,5,14,7,23,0.00,3,,210
2013-6-9,84,77,72,76,73,70,93,84,69,30.15,30.12,30.07,10,10,5,17,7,,0.05,4,Rain-Thunderstorm,146
2013-6-10,87,80,75,76,74,71,94,80,61,30.13,30.09,30.03,10,10,7,17,8,22,0.00,2,Thunderstorm,177
2013-6-11,90,82,75,77,73,69,94,77,55,30.11,30.07,30.03,10,10,10,14,7,,0.00,3,,230
2013-6-12,93,83,73,76,72,68,94,73,44,30.08,30.05,29.99,10,10,7,13,8,,0.00,2,,216
2013-6-13,95,85,75,75,73,69,94,69,43,30.01,29.95,29.87,10,10,5,12,9,18,0.00,1,,240
2013-6-14,90,82,75,77,73,66,90,76,63,29.96,29.88,29.84,10,9,2,17,10,30,0.01,4,Rain-Thunderstorm,255
2013-6-15,84,82,78,74,69,67,84,69,58,30.12,30.06,29.96,10,10,10,17,14,,0.00,3,,95
2013-6-16,84,78,75,74,71,69,84,74,65,30.14,30.11,30.07,10,10,10,17,12,,0.00,2,,113
2013-6-17,87,82,77,77,75,73,90,77,70,30.09,30.05,29.99,10,9,0,18,8,24,0.00,3,Rain-Thunderstorm,154
2013-6-18,93,83,73,74,71,66,96,70,41,30.06,30.01,29.94,10,10,5,13,7,21,0.00,2,,233
2013-6-19,91,83,75,76,72,70,90,72,49,30.06,30.01,29.96,10,10,10,18,8,22,0.00,4,Thunderstorm,193
2013-6-20,88,80,73,76,73,70,91,78,57,30.12,30.09,30.01,10,9,3,18,9,,0.07,4,Rain-Thunderstorm,32
2013-6-21,84,78,73,75,73,70,93,80,70,30.15,30.12,30.07,10,10,7,10,6,,0.01,5,Rain-Thunderstorm,45
2013-6-22,84,78,72,75,74,71,97,89,70,30.16,30.13,30.10,10,8,2,13,4,,0.35,5,Rain-Thunderstorm,167
2013-6-23,84,78,73,75,73,71,96,80,67,30.19,30.15,30.11,10,10,10,15,5,,0.00,3,,111
2013-6-24,86,80,75,75,74,72,91,79,69,30.23,30.18,30.13,10,10,6,16,7,,0.00,3,,135
2013-6-25,87,80,73,74,73,71,94,78,65,30.18,30.13,30.07,10,10,8,16,7,,0.00,2,,140
2013-6-26,89,80,73,76,74,70,94,81,55,30.11,30.07,30.03,10,9,5,17,6,,0.00,3,Rain-Thunderstorm,176
2013-6-27,89,80,72,77,73,70,94,81,55,30.06,29.99,29.93,10,9,3,24,7,29,0.04,3,Rain-Thunderstorm,201
2013-6-28,90,82,75,76,74,71,94,79,59,29.96,29.89,29.83,10,10,7,16,8,22,0.00,3,Rain-Thunderstorm,231
2013-6-29,88,82,77,75,73,70,90,75,59,29.84,29.82,29.79,10,10,7,16,9,23,0.00,4,,217
2013-6-30,90,80,73,75,73,70,94,81,61,29.88,29.84,29.81,10,9,2,20,9,33,0.41,5,Rain-Thunderstorm,191